Quantico, VA

4:16 AM EST on December 07, 2019 (GMT -0500)
Quantico Marine Corps Air Facility

Weather History for KNYG - November, 2019

Change the Weather History Date:

Tuesday, November 19, 2019

  Actual Average Record
Temperature  
Mean Temperature 48 °F -  
Max Temperature 51 °F 53 °F 71 °F (2016)
Min Temperature 44 °F 36 °F 19 °F (2014)
Degree Days  
Heating Degree Days 18    
Moisture  
Dew Point 43 °F    
Average Humidity 87    
Maximum Humidity 96    
Minimum Humidity 77    
Precipitation  
Precipitation 0.01 in - - ()
Sea Level Pressure  
Sea Level Pressure 29.85 in    
Wind  
Wind Speed 4 mph (SSW)    
Max Wind Speed 10 mph    
Max Gust Speed -    
Visibility 6 miles    
Events Rain    
Averages and records for this station are not official NWS values.
T = Trace of Precipitation, MM = Missing Value Source: NWS Daily Summary

Daily Weather History Graph

Daily Weather History Graph

Search for Another Location

Airport or City:

Astronomy

Nov. 19, 2019 Rise Set
Actual Time 6:55 AM EST 4:53 PM EST
Civil Twilight 6:26 AM EST 5:22 PM EST
Nautical Twilight 5:54 AM EST 5:54 PM EST
Astronomical Twilight 5:22 AM EST 6:26 PM EST
Moon 11:46 PM EST (11/19) 1:04 PM EST (11/19)
Length of Visible Light 10h 55m
Length of Day
9h 58m
Waning Gibbous, 52% of the Moon is Illuminated
Nov 19
Waning Gibbous
Nov 19
Last Quarter
Nov 26
New
Dec 4
First Quarter
Dec 12
Full

Hourly Weather History & Observations

Time (EST) Temp. Windchill Dew Point Humidity Pressure Visibility Wind Dir Wind Speed Gust Speed Precip Events Conditions
12:16 AM 44.1 °F - - N/A% 29.79 in 3.0 mi Calm Calm - 0.00 in   Overcast
12:56 AM 44.1 °F 42.5 °F - N/A% 29.79 in 4.0 mi SSW 3.5 mph - 0.00 in   Haze
1:56 AM 45.0 °F - - N/A% 29.80 in 4.0 mi Calm Calm - 0.00 in Rain Light Rain
2:56 AM 44.1 °F 41.5 °F 43.0 °F 96% 29.80 in 4.0 mi WNW 4.6 mph - 0.01 in   Overcast
3:56 AM 45.0 °F 42.6 °F 43.0 °F 93% 29.80 in 5.0 mi SSW 4.6 mph - N/A   Overcast
4:56 AM 45.0 °F 42.6 °F 43.0 °F 93% 29.81 in 4.0 mi SW 4.6 mph - N/A   Overcast
5:20 AM 45.0 °F 42.6 °F 43.0 °F 93% 29.80 in 6.0 mi WSW 4.6 mph - N/A   Overcast
5:56 AM 45.0 °F 40.6 °F 43.0 °F 93% 29.82 in 6.0 mi West 8.1 mph - N/A   Overcast
6:56 AM 44.1 °F 42.5 °F 42.1 °F 93% 29.83 in 6.0 mi Variable 3.5 mph - N/A   Overcast
7:56 AM 44.1 °F 40.8 °F 42.1 °F 93% 29.86 in 4.0 mi West 5.8 mph - N/A   Overcast
8:56 AM 45.0 °F 43.5 °F 41.0 °F 86% 29.87 in 5.0 mi SSW 3.5 mph - N/A   Overcast
8:58 AM 45.0 °F 42.6 °F 41.0 °F 86% 29.87 in 5.0 mi SW 4.6 mph - N/A   Overcast
9:56 AM 45.0 °F 41.8 °F 42.1 °F 90% 29.88 in 5.0 mi South 5.8 mph - N/A   Overcast
10:56 AM 46.0 °F 43.1 °F 42.1 °F 86% 29.88 in 6.0 mi South 5.8 mph - N/A   Overcast
11:15 AM 46.9 °F - 43.0 °F 86% 29.87 in 6.0 mi South 5.8 mph - N/A   Overcast
11:56 AM 46.9 °F - 42.1 °F 83% 29.86 in 7.0 mi South 3.5 mph - N/A   Mostly Cloudy
12:36 PM 48.9 °F - 43.0 °F 80% 29.85 in 7.0 mi SSE 6.9 mph - N/A   Scattered Clouds
12:56 PM 48.9 °F - 44.1 °F 83% 29.84 in 6.0 mi SE 5.8 mph - N/A   Haze
1:56 PM 51.1 °F - 44.1 °F 77% 29.83 in 10.0 mi SSE 10.4 mph - N/A   Unknown
2:56 PM 50.0 °F - 44.1 °F 80% 29.84 in 10.0 mi South 6.9 mph - N/A   Mostly Cloudy
3:56 PM 50.0 °F - 45.0 °F 83% 29.84 in 10.0 mi South 9.2 mph - N/A   Mostly Cloudy
4:56 PM 48.9 °F - 44.1 °F 83% 29.86 in 8.0 mi South 10.4 mph - N/A   Clear
5:56 PM 48.9 °F - 44.1 °F 83% 29.87 in 8.0 mi Calm Calm - N/A   Overcast
6:56 PM 48.0 °F - 44.1 °F 86% 29.88 in 8.0 mi SSE 4.6 mph - N/A   Overcast
7:56 PM 48.0 °F - 44.1 °F 86% 29.88 in 8.0 mi SSW 3.5 mph - N/A   Overcast
8:56 PM 46.9 °F - 44.1 °F 90% 29.89 in 8.0 mi SW 3.5 mph - N/A   Overcast
9:56 PM 46.9 °F - 44.1 °F 90% 29.90 in 8.0 mi Calm Calm - N/A   Overcast
10:56 PM 46.9 °F - 43.0 °F 86% 29.90 in 8.0 mi Calm Calm - N/A   Overcast
11:56 PM 46.9 °F - 43.0 °F 86% 29.90 in 8.0 mi Calm Calm - N/A   Overcast